Wind_Speed
31 31 30 28 28 28 28 27 27 25 24 23 24 25 24 24 24 24 25 26 27 28 29 30 30 31 33 34 34 35 36 37 37 38 38 39 41 41 41 42 43 44 45 45
33 33 34 32 31 30 30 30 29 28 26 25 26 27 27 26 26 26 27 28 29 30 31 32 32 33 34 35 35 37 37 38 38 39 40 40 41 42 42 43 43 43 44 45
36 35 37 36 33 33 32 32 31 30 28 28 28 29 29 28 28 28 29 29 31 32 33 34 35 36 37 37 37 38 39 39 39 40 40 41 41 42 43 43 43 44 44 45
39 38 40 37 36 36 35 34 33 32 31 31 31 31 31 31 31 31 31 31 32 33 34 35 37 38 39 40 40 40 40 40 40 41 42 42 43 43 43 44 44 45 46 46
41 41 41 38 38 37 37 37 35 35 34 34 34 33 33 33 33 33 33 33 34 35 36 37 38 38 39 40 41 41 41 41 41 42 43 43 44 44 45 45 46 47 47 47
42 42 42 41 41 40 39 39 37 37 36 36 35 35 34 34 34 35 35 36 36 36 37 37 38 39 39 40 40 41 41 41 42 43 43 44 45 46 46 46 47 47 48 48
44 44 44 43 43 42 42 41 39 39 39 38 38 38 37 37 37 37 37 38 38 38 38 38 39 39 39 40 41 42 42 43 43 44 45 45 46 47 47 47 48 48 49 49
44 45 44 43 43 43 44 43 42 42 41 41 41 40 40 40 40 39 39 40 40 40 40 40 41 41 42 42 43 43 44 44 45 45 46 47 47 48 48 48 48 48 49 49
46 46 45 45 44 44 44 44 43 43 43 43 42 42 42 42 42 41 42 42 42 42 43 43 43 43 44 44 45 45 45 46 46 46 47 48 48 48 48 48 49 49 49 49
48 46 46 46 47 47 46 45 45 44 44 44 44 44 44 44 44 43 43 44 44 44 44 44 44 45 45 45 45 46 46 47 47 47 47 47 48 48 49 49 49 49 49 50
50 48 48 48 48 49 48 47 47 46 45 45 45 45 45 45 45 46 46 46 46 46 45 46 46 46 46 46 47 47 48 48 47 47 47 47 48 48 49 49 49 50 51 51
49 49 50 49 49 49 49 49 49 48 47 47 47 46 46 46 47 47 48 48 48 48 47 47 47 47 47 48 48 48 48 48 47 47 47 48 48 48 48 50 50 51 52 52
49 49 50 49 49 48 48 49 49 49 49 48 48 48 48 48 48 48 48 49 49 49 49 49 49 49 49 49 49 49 48 48 47 48 48 48 48 49 49 49 50 51 51 51
48 49 49 49 48 48 48 47 48 48 48 48 48 47 47 47 48 48 48 48 49 49 49 50 50 50 50 50 49 49 48 48 48 48 48 48 49 49 49 49 49 49 50 51
46 47 48 48 48 48 47 47 47 46 46 46 46 46 46 46 46 47 47 47 47 48 48 49 49 50 50 49 49 48 48 48 48 48 48 48 48 48 48 49 49 49 50 50
44 44 44 45 45 46 46 46 46 45 44 44 45 45 45 45 45 46 46 46 46 47 47 48 48 49 49 48 48 47 47 47 47 47 47 47 47 47 48 49 49 50 50 49
41 41 42 41 42 43 43 43 43 44 44 44 44 44 44 44 44 45 45 46 47 47 47 47 47 47 47 47 47 47 47 47 47 47 47 47 47 48 48 49 49 49 48 48
39 39 39 40 40 41 41 42 42 43 43 43 44 44 44 44 44 44 45 45 46 46 45 46 46 45 45 46 46 46 47 47 47 47 47 48 48 48 48 48 48 48 47 47
37 38 38 38 39 39 39 39 40 41 42 42 43 43 43 44 44 44 45 45 44 44 43 44 44 44 44 45 45 46 46 47 47 48 48 48 47 47 47 47 46 46 46 45
35 36 36 36 37 37 38 38 39 40 41 42 42 42 43 43 43 44 44 44 43 43 43 44 44 44 44 44 44 45 46 46 46 46 46 46 45 45 44 44 44 43 43 43
33 34 35 36 37 38 38 38 38 39 39 40 40 41 41 42 42 42 43 42 42 43 43 43 43 43 42 43 43 43 44 44 43 43 42 42 42 42 42 42 42 41 41 41
32 32 33 34 35 36 36 36 37 37 38 39 39 39 40 39 40 40 40 40 41 41 41 41 41 41 41 41 41 41 41 40 40 39 39 39 39 39 39 39 39 39 39 39
31 32 32 32 33 33 33 34 35 36 37 37 38 38 38 38 38 38 37 38 39 39 39 39 40 40 40 40 40 39 39 38 38 38 38 37 37 37 37 37 37 37 36 36
32 32 32 32 33 33 34 34 34 34 34 34 35 35 36 36 36 36 37 37 37 36 37 37 38 38 38 38 38 38 38 37 37 37 37 37 37 36 36 35 35 35 34 33
32 32 32 32 33 33 33 32 32 32 31 31 31 32 33 33 33 33 34 34 34 35 35 36 36 37 37 37 37 36 36 36 36 36 36 35 34 34 34 33 33 33 33 32
31 32 32 32 31 30 30 30 30 30 31 30 31 32 32 32 32 32 32 33 33 33 34 34 35 35 35 35 35 35 35 35 35 35 34 33 33 33 32 32 32 32 31 31
29 29 29 29 29 30 29 29 29 29 30 30 30 30 31 31 31 31 31 31 31 32 32 32 33 33 33 32 33 33 33 33 33 33 32 32 31 31 30 30 30 30 29 29
Wind_Direction
273 273 273 274 275 276 279 281 282 284 284 284 280 279 279 279 276 273 271 270 269 270 269 268 266 266 266 266 266 266 266 266 266 268 268 269 270 271 272 273 274 275 276 277
271 272 272 273 274 276 277 278 279 280 280 280 279 278 277 276 275 274 272 270 268 269 269 268 267 268 269 269 269 268 268 268 268 268 269 270 271 272 273 275 276 276 276 277
271 271 271 272 274 276 277 277 277 278 278 277 277 276 275 274 274 274 274 272 270 270 269 269 268 268 268 269 269 269 269 268 268 268 268 269 271 272 273 274 276 277 278 278
272 270 271 274 274 274 276 277 277 277 277 277 277 276 275 275 274 274 274 273 272 271 270 270 269 269 269 269 269 270 270 269 269 269 269 270 272 273 274 275 276 277 278 278
271 271 271 272 275 275 276 276 277 277 277 277 275 274 274 275 275 275 274 273 272 272 272 271 270 270 270 270 270 271 271 271 271 271 272 272 273 274 276 277 277 278 278 279
269 270 272 273 274 275 275 275 276 276 275 275 275 274 273 274 274 275 275 276 275 274 273 272 271 271 270 270 271 271 272 273 274 274 274 274 275 276 278 278 279 279 279 279
267 269 270 273 274 275 275 275 275 274 275 275 275 274 274 274 275 274 275 275 276 275 273 272 271 271 271 271 271 272 273 275 275 276 277 277 278 278 279 279 279 279 280 280
266 267 269 271 273 273 274 274 274 274 274 274 274 274 275 275 275 275 275 275 275 275 274 274 273 273 272 272 273 274 275 276 277 278 279 279 279 279 280 280 280 280 280 281
264 266 267 268 269 271 271 272 272 272 272 273 273 273 274 275 275 275 275 275 275 275 275 274 274 274 274 273 274 275 276 277 278 279 280 280 279 279 279 280 280 280 281 281
264 265 266 266 267 268 269 270 270 271 272 272 273 273 273 274 275 275 275 275 275 275 275 274 275 275 275 274 275 276 277 278 279 280 280 280 280 280 280 280 280 281 281 281
264 265 265 266 267 267 268 269 269 270 271 271 272 272 272 273 273 274 275 275 275 275 275 274 274 275 275 275 275 276 277 278 279 279 279 279 280 280 280 281 281 281 281 281
264 264 265 266 266 267 268 269 269 269 270 271 272 272 272 272 272 273 274 274 275 275 275 275 274 274 275 275 276 276 277 277 278 278 278 279 279 280 280 281 281 281 282 282
264 264 265 266 266 267 268 269 270 270 270 271 272 273 274 274 274 274 274 274 275 275 275 274 274 274 275 276 276 277 277 277 278 278 278 278 279 280 280 281 282 282 282 282
264 265 266 266 267 267 267 268 269 270 271 271 272 273 274 274 274 275 274 274 275 275 275 275 275 275 276 276 276 276 277 277 278 278 278 279 280 281 282 282 282 282 282 282
264 266 267 267 267 268 268 268 269 270 271 271 272 273 273 274 274 274 274 274 274 274 274 275 275 276 276 276 277 277 277 277 278 278 278 279 281 282 282 283 283 283 283 282
264 266 267 268 268 269 269 269 270 269 269 270 271 272 273 273 274 274 273 274 275 275 274 275 275 275 276 276 277 277 277 278 278 278 278 279 280 282 283 283 283 284 284 283
266 267 267 267 267 267 268 268 269 269 268 269 270 270 271 273 273 273 273 274 275 276 275 275 275 276 276 276 276 276 277 278 278 278 279 280 281 282 283 284 284 284 284 284
267 268 268 268 268 267 267 268 268 268 269 270 270 271 271 272 273 273 274 275 275 275 275 275 276 277 277 277 276 277 277 278 278 279 279 280 282 282 283 284 284 284 284 284
269 270 270 270 270 270 270 271 270 270 271 271 272 273 273 273 273 274 275 275 276 275 276 276 277 278 278 278 278 278 278 279 279 280 280 281 281 283 284 284 284 284 284 284
272 272 272 272 272 273 274 274 273 273 273 274 274 275 274 274 274 275 275 277 277 277 277 277 278 278 279 279 279 280 280 280 280 280 281 281 281 282 283 283 283 283 283 284
274 275 275 275 275 275 276 276 276 275 274 274 275 275 275 275 275 276 277 277 277 277 278 278 278 279 280 280 281 281 281 281 281 281 281 281 281 282 283 283 283 283 283 283
277 277 277 278 278 278 277 277 277 276 275 275 275 275 275 275 276 277 277 277 277 278 278 279 279 279 280 281 281 281 281 281 281 282 282 282 282 282 283 283 283 284 283 283
279 279 279 279 279 278 278 278 277 277 276 275 275 275 275 276 277 277 278 278 279 280 280 280 280 280 280 280 280 280 280 281 281 282 283 283 283 283 283 283 284 284 284 283
280 281 281 281 280 280 280 279 279 278 277 276 275 275 276 278 278 278 279 280 280 281 281 280 280 280 280 280 281 281 281 281 282 282 283 283 283 283 283 284 284 284 283 282
281 281 282 282 282 281 280 279 278 278 278 278 278 279 279 280 280 281 281 281 281 281 281 281 281 281 281 282 282 281 282 282 282 283 283 283 283 283 283 283 283 283 282 282
283 282 282 281 281 280 279 279 279 278 279 280 280 281 281 281 281 282 282 282 282 282 283 283 283 283 283 282 282 282 283 283 282 283 283 283 283 283 283 283 282 283 283 283
286 284 282 281 281 280 280 280 280 280 280 281 282 282 282 282 281 281 282 282 283 283 284 285 286 286 285 283 283 283 284 284 283 282 283 282 283 283 283 283 283 283 283 283
Height
5648 5648 5648 5648 5648 5647 5646 5646 5645 5645 5644 5644 5642 5640 5639 5638 5637 5636 5636 5636 5636 5636 5637 5637 5637 5637 5638 5638 5638 5638 5639 5639 5640 5640 5640 5641 5641 5641 5641 5641 5640 5640 5639 5639
5640 5640 5639 5640 5640 5640 5639 5638 5637 5637 5638 5637 5635 5633 5632 5631 5630 5630 5629 5629 5629 5629 5629 5629 5629 5629 5629 5629 5629 5629 5629 5629 5630 5630 5630 5630 5630 5630 5629 5629 5628 5628 5627 5626
5630 5631 5629 5631 5633 5632 5631 5631 5630 5629 5630 5628 5627 5626 5625 5624 5623 5622 5622 5622 5621 5621 5621 5620 5620 5620 5620 5620 5619 5619 5619 5619 5619 5619 5619 5619 5619 5618 5618 5617 5616 5615 5614 5613
5619 5620 5620 5625 5623 5623 5622 5622 5621 5620 5620 5620 5619 5618 5617 5616 5615 5615 5614 5614 5613 5612 5612 5611 5611 5610 5610 5610 5609 5609 5608 5608 5608 5608 5608 5607 5607 5606 5606 5605 5604 5603 5601 5600
5608 5607 5609 5613 5613 5612 5611 5611 5612 5611 5611 5610 5610 5609 5609 5608 5606 5605 5605 5604 5604 5603 5602 5601 5600 5600 5599 5599 5598 5598 5597 5597 5596 5596 5595 5595 5594 5594 5593 5592 5591 5589 5588 5587
5597 5596 5597 5602 5601 5600 5601 5601 5601 5600 5599 5599 5599 5599 5600 5598 5597 5596 5595 5594 5593 5592 5591 5590 5590 5589 5588 5587 5587 5586 5585 5585 5584 5583 5583 5582 5581 5580 5579 5578 5577 5575 5574 5573
5586 5584 5586 5589 5589 5588 5590 5590 5589 5588 5588 5588 5588 5588 5588 5587 5586 5585 5584 5583 5582 5581 5580 5579 5578 5577 5577 5576 5575 5574 5573 5573 5572 5571 5570 5569 5568 5567 5566 5564 5563 5562 5560 5559
5574 5574 5578 5577 5576 5577 5576 5576 5576 5576 5576 5576 5576 5576 5575 5574 5574 5573 5573 5572 5571 5570 5569 5568 5566 5566 5565 5564 5563 5562 5561 5560 5559 5558 5556 5555 5555 5553 5552 5551 5549 5548 5546 5544
5562 5564 5564 5564 5563 5563 5563 5564 5564 5564 5564 5564 5564 5563 5563 5562 5562 5561 5560 5560 5559 5558 5557 5556 5554 5553 5552 5551 5550 5549 5548 5547 5546 5544 5543 5542 5540 5539 5538 5536 5535 5534 5532 5530
5547 5550 5550 5550 5550 5550 5550 5550 5551 5551 5551 5551 5551 5551 5550 5550 5549 5548 5547 5546 5545 5544 5543 5542 5541 5540 5539 5538 5537 5536 5535 5534 5532 5531 5530 5528 5526 5525 5523 5522 5521 5519 5518 5516
5533 5536 5536 5536 5536 5536 5537 5537 5538 5538 5538 5538 5537 5537 5537 5537 5536 5535 5534 5533 5532 5531 5530 5529 5528 5527 5526 5525 5524 5523 5522 5520 5519 5517 5516 5514 5513 5511 5509 5508 5506 5505 5503 5501
5519 5521 5520 5522 5522 5522 5523 5524 5524 5524 5524 5524 5523 5523 5523 5523 5522 5522 5521 5520 5519 5518 5517 5516 5514 5513 5512 5511 5510 5509 5508 5506 5505 5504 5502 5501 5499 5498 5495 5493 5492 5490 5488 5486
5504 5505 5505 5507 5508 5508 5508 5509 5509 5510 5510 5510 5510 5509 5509 5508 5508 5508 5507 5506 5505 5504 5503 5502 5500 5499 5498 5497 5496 5495 5494 5492 5491 5490 5488 5487 5485 5484 5483 5481 5478 5475 5473 5471
5490 5490 5492 5493 5494 5494 5494 5495 5495 5495 5495 5495 5495 5495 5494 5494 5493 5493 5492 5492 5491 5490 5488 5487 5486 5485 5484 5483 5482 5480 5479 5478 5477 5476 5474 5473 5471 5469 5468 5466 5464 5462 5459 5456
5477 5477 5478 5479 5480 5480 5480 5481 5481 5481 5481 5481 5481 5480 5480 5480 5479 5479 5478 5477 5476 5475 5474 5473 5471 5470 5469 5468 5467 5466 5465 5464 5462 5461 5460 5458 5457 5455 5453 5451 5449 5447 5445 5443
5464 5464 5464 5465 5466 5466 5466 5467 5467 5467 5467 5467 5467 5467 5466 5466 5465 5465 5464 5462 5461 5460 5459 5458 5457 5456 5455 5453 5452 5452 5451 5450 5448 5447 5446 5444 5442 5441 5439 5437 5435 5433 5431 5428
5451 5451 5452 5452 5452 5453 5453 5453 5453 5453 5454 5454 5454 5453 5453 5452 5451 5451 5450 5449 5447 5446 5445 5444 5443 5442 5440 5439 5438 5437 5436 5435 5434 5433 5431 5430 5428 5426 5424 5422 5420 5418 5416 5413
5438 5439 5439 5440 5440 5440 5440 5440 5440 5440 5440 5440 5440 5440 5439 5439 5438 5437 5436 5435 5434 5433 5431 5430 5428 5427 5426 5425 5424 5423 5422 5421 5420 5418 5417 5415 5414 5412 5410 5408 5406 5404 5401 5399
5427 5428 5428 5428 5428 5428 5428 5428 5428 5428 5427 5427 5427 5426 5425 5425 5424 5423 5422 5421 5420 5419 5418 5416 5415 5414 5412 5411 5410 5409 5408 5407 5406 5404 5403 5401 5399 5397 5395 5393 5391 5389 5387 5385
5417 5417 5417 5417 5416 5416 5416 5415 5415 5415 5415 5414 5413 5413 5412 5411 5410 5410 5409 5408 5407 5405 5404 5403 5402 5400 5399 5398 5396 5395 5394 5393 5391 5390 5388 5386 5385 5383 5381 5379 5378 5376 5374 5372
5407 5406 5406 5405 5405 5405 5404 5403 5403 5402 5402 5401 5400 5400 5399 5398 5397 5396 5395 5395 5394 5391 5391 5390 5388 5387 5386 5385 5383 5382 5381 5379 5378 5376 5374 5373 5372 5370 5368 5367 5365 5363 5361 5359
5397 5396 5396 5395 5394 5393 5393 5392 5391 5390 5389 5388 5388 5387 5386 5385 5384 5383 5382 5381 5380 5379 5378 5377 5376 5374 5373 5372 5371 5369 5368 5366 5365 5363 5362 5361 5359 5358 5356 5354 5353 5351 5349 5347
5387 5386 5385 5385 5384 5383 5382 5380 5379 5378 5377 5376 5376 5375 5374 5373 5372 5371 5371 5370 5368 5367 5366 5365 5363 5362 5361 5360 5358 5357 5355 5354 5353 5352 5350 5349 5347 5346 5344 5342 5341 5339 5338 5336
5377 5376 5375 5374 5373 5372 5371 5369 5368 5367 5366 5365 5364 5363 5362 5362 5361 5360 5358 5358 5356 5355 5354 5353 5351 5350 5349 5347 5346 5345 5344 5342 5341 5340 5338 5337 5335 5334 5332 5331 5330 5328 5327 5325
5368 5366 5365 5364 5362 5361 5360 5359 5358 5357 5356 5355 5354 5352 5351 5350 5350 5349 5348 5347 5345 5344 5343 5341 5340 5338 5337 5336 5334 5333 5332 5331 5329 5328 5327 5325 5324 5323 5321 5320 5319 5317 5316 5315
5358 5357 5355 5354 5352 5351 5350 5349 5348 5347 5346 5345 5344 5342 5341 5340 5339 5338 5337 5336 5334 5333 5331 5330 5328 5327 5325 5324 5323 5322 5320 5319 5318 5317 5315 5314 5313 5312 5311 5310 5308 5307 5306 5305
5349 5347 5345 5344 5343 5341 5341 5340 5339 5338 5336 5335 5334 5333 5331 5330 5329 5327 5326 5325 5324 5322 5321 5319 5317 5316 5314 5313 5312 5311 5309 5308 5307 5306 5305 5304 5303 5302 5301 5300 5299 5297 5296 5295